CO3D3

基本信息
目录编号:
64900
目录名称:
CO3D3
国际标识:
2025-156B
轨道中心:
EARTH
卫星名称:
CO3D3
卫星全名:
CO3D3
卫星状态:
在轨 (已飞行142 天)
发射日期:
2025-07-26 UTC
国别 :
法国 (FR)
星等 :
--
轨道信息
数据来源 国际轨道数据
星历时间: 2025-12-14T00:46:36+0800
2天前
查看轨道信息
半长轴: 6883.373km
偏心率: 0.0001384
轨道倾角: 97.434°
近地点辐角 93.905°
升交点赤经 64.052°
平近点角 266.235°
近地点: 504.285km
远地点: 506.191km
周期: 94.724分钟
每日圈数: 15.202003
详细信息
使用方式:
暂无
2D轨道图
3D轨道图
轨道高度分析图
轨道倾角分析图
轨道综合分析图
查看轨道综合分析图